Location: Huesca
(42.1318°N, 0.4078°W)
Time: 15:30:21
(UTC+02:00)

ACS3 Solar Sail - Visible Passes

Search period start: 18 June 2024 00:00
Search period end: 28 June 2024 00:00
Orbit: 992 x 1024 km, 97.4° (Epoch: 17 June)

Date Brightness Start Highest point End Pass type
(mag) Time Alt. Az. Time Alt. Az. Time Alt. Az.
18 Jun 5.6 22:41:49 12° SE 22:47:03 37° ENE 22:52:40 10° N visible
19 Jun 5.9 00:27:10 18° SSW 00:31:07 36° W 00:36:48 10° NNW visible
19 Jun 4.9 23:16:37 19° SSE 23:21:15 68° ENE 23:27:26 10° N visible
20 Jun 6.8 01:01:57 11° SW 01:05:54 19° W 01:10:09 10° NW visible
20 Jun 5.1 23:51:24 21° S 23:55:41 66° W 00:01:53 10° NNW visible
21 Jun 5.6 22:40:51 12° SE 22:46:10 38° ENE 22:51:50 10° N visible
22 Jun 6.0 00:26:12 17° SSW 00:30:16 35° W 00:35:55 10° NNW visible
22 Jun 4.9 23:15:39 18° SSE 23:20:24 70° ENE 23:26:36 10° N visible
23 Jun 6.8 01:01:00 10° SW 01:05:04 18° W 01:09:13 10° NW visible
23 Jun 5.1 23:50:26 20° S 23:54:49 64° W 00:01:01 10° NNW visible
24 Jun 5.5 22:39:54 11° SE 22:45:18 39° ENE 22:51:00 10° N visible
25 Jun 6.0 00:25:14 16° SSW 00:29:26 34° W 00:35:01 10° NNW visible
25 Jun 4.9 23:14:42 17° SSE 23:19:32 72° ENE 23:25:45 10° N visible
26 Jun 6.9 01:00:14 10° SW 01:04:14 18° W 01:08:15 10° NW visible
26 Jun 5.2 23:49:29 19° S 23:53:58 62° W 00:00:09 10° NNW visible
27 Jun 5.5 22:38:57 11° SE 22:44:26 40° ENE 22:50:10 10° N visible
